Flag for Canada Weather past 2 weeks in Chatham-Kent, Ontario, Canada

Now
17 °F

Cold.


Feels Like: 8 °F
Forecast: -5 / 17 °F
Wind: 7 mph from South

Location: Erieau

Current Time: Feb 28, 2015 at 2:49:51 PM

Latest Report: Feb 28, 2015 at 2:00 PM


Visibility: N/A

Pressure: 30.78 "Hg

Humidity: 66%

Dew point: 8 °F

Location of Chatham-KentLocation

Historic Weather in Chatham-Kent — Graph

°F

Chatham-Kent temperature yesterday

Maximum temperature yesterday: 15 °F (at 3:00 PM)
Minimum temperature yesterday: -1 °F (at 7:00 AM)
Average temperature yesterday: 7 °F

Past Weeks' High & Low Weather Summary

 TemperatureHumidityPressure
High25 °F (Feb 14, 6:00 AM)93% (Feb 14, 12:00 AM)30.82 "Hg (Feb 14, 12:00 AM)
Low-12 °F (Feb 20, 7:00 AM)43% (Feb 23, 2:00 PM)29.61 "Hg (Feb 14, 9:00 AM)
Average7 °F72%30.20 "Hg
* Reported Feb 13 1:00 PM — Feb 28 1:00 PM, Chatham-Kent, Weather by CustomWeather, © 2015

Note: Actual official high and low records may vary slightly from our data, if they occured in-between our weather recording intervals... More about our weather records

Advertising

Chatham-Kent weather history for previous 24 hours

 ConditionsComfort  
Time TempWeatherWind HumidityBarometerVisibility
1:00 PM
Sat, Feb 28
17 °FCold.6 mph69%30.80 "HgN/A
12:00 PM15 °FCold.6 mph75%30.81 "HgN/A
11:00 AM13 °FCold.6 mph75%30.82 "HgN/A
10:00 AM13 °FCold.3 mph73%30.81 "HgN/A
9:00 AM9 °FFrigid.6 mph78%30.81 "HgN/A
8:00 AM8 °FFrigid.5 mph79%30.79 "HgN/A
7:00 AM7 °FFrigid.5 mph82%30.78 "HgN/A
6:00 AM8 °FFrigid.5 mph76%30.77 "HgN/A
5:00 AM8 °FFrigid.6 mph75%30.75 "HgN/A
4:00 AM8 °FFrigid.3 mph74%30.73 "HgN/A
3:00 AM8 °FFrigid.3 mph74%30.73 "HgN/A
2:00 AM8 °FFrigid.5 mph72%30.72 "HgN/A
1:00 AM8 °FFrigid.6 mph72%30.71 "HgN/A
12:00 AM11 °FCold.9 mph65%30.71 "HgN/A
11:00 PM
Fri, Feb 27
10 °FCold.8 mph73%30.70 "HgN/A
10:00 PM11 °FCold.8 mph72%30.69 "HgN/A
9:00 PM11 °FCold.9 mph71%30.67 "HgN/A
8:00 PM11 °FCold.8 mph69%30.65 "HgN/A
7:00 PM11 °FCold.8 mph64%30.64 "HgN/A
6:00 PM12 °FCold.7 mph61%30.63 "HgN/A
5:00 PM13 °FCold.8 mph61%30.63 "HgN/A
4:00 PM13 °FCold.9 mph60%30.62 "HgN/A
3:00 PM15 °FCold.9 mph65%30.61 "HgN/A
2:00 PM13 °FCold.9 mph67%30.60 "HgN/A
Weather by CustomWeather, © 2015

See weather overviewHow to use our weather pages